Year,Month,Day,Hour,Minute,Value (Times are PST for windspeed in km/hr)
2010,11,23,00,00,12.30
2010,11,23,00,01,13.00
2010,11,23,00,02,14.70
2010,11,23,00,03,18.00
2010,11,23,00,04,15.30
2010,11,23,00,05,19.60
2010,11,23,00,06,30.90
2010,11,23,00,07,9.10
2010,11,23,00,08,11.00
2010,11,23,00,09,9.30
2010,11,23,00,10,14.00
2010,11,23,00,11,10.10
2010,11,23,00,12,9.90
2010,11,23,00,13,20.00
2010,11,23,00,14,7.30
2010,11,23,00,15,9.20
2010,11,23,00,16,18.10
2010,11,23,00,17,14.40
2010,11,23,00,18,12.60
2010,11,23,00,19,7.60
2010,11,23,00,20,6.90
2010,11,23,00,21,9.70
2010,11,23,00,22,17.80
2010,11,23,00,23,10.80
2010,11,23,00,24,10.10
2010,11,23,00,25,14.10
2010,11,23,00,26,12.50
2010,11,23,00,27,14.90
2010,11,23,00,28,9.70
2010,11,23,00,29,7.30
2010,11,23,00,30,9.40
2010,11,23,00,31,12.00
2010,11,23,00,32,9.40
2010,11,23,00,33,14.40
2010,11,23,00,34,12.50
2010,11,23,00,35,14.10
2010,11,23,00,36,13.70
2010,11,23,00,37,6.40
2010,11,23,00,38,14.10
2010,11,23,00,39,13.00
2010,11,23,00,40,10.90
2010,11,23,00,41,14.90
2010,11,23,00,42,18.50
2010,11,23,00,43,25.90
2010,11,23,00,44,18.30
2010,11,23,00,45,18.00
2010,11,23,00,46,12.60
2010,11,23,00,47,13.60
2010,11,23,00,48,11.20
2010,11,23,00,49,15.40
2010,11,23,00,50,21.30
2010,11,23,00,51,15.20
2010,11,23,00,52,20.10
2010,11,23,00,53,16.60
2010,11,23,00,54,15.70
2010,11,23,00,55,16.40
2010,11,23,00,56,12.00
2010,11,23,00,57,13.30
2010,11,23,00,58,14.70
2010,11,23,00,59,16.70
2010,11,23,01,00,15.10
2010,11,23,01,01,9.20
2010,11,23,01,02,15.40
2010,11,23,01,03,17.50
2010,11,23,01,04,10.80
2010,11,23,01,05,7.30
2010,11,23,01,06,13.40
2010,11,23,01,07,11.90
2010,11,23,01,08,4.60
2010,11,23,01,09,13.00
2010,11,23,01,10,17.20
2010,11,23,01,11,8.30
2010,11,23,01,12,13.00
2010,11,23,01,13,6.40
2010,11,23,01,14,16.00
2010,11,23,01,15,6.40
2010,11,23,01,16,10.40
2010,11,23,01,17,17.30
2010,11,23,01,18,13.90
2010,11,23,01,19,11.90
2010,11,23,01,20,12.90
2010,11,23,01,21,11.00
2010,11,23,01,22,21.20
2010,11,23,01,23,11.20
2010,11,23,01,24,8.60
2010,11,23,01,25,14.70
2010,11,23,01,26,6.20
2010,11,23,01,27,6.60
2010,11,23,01,28,8.40
2010,11,23,01,29,15.30
2010,11,23,01,30,8.30
2010,11,23,01,31,4.20
2010,11,23,01,32,17.50
2010,11,23,01,33,12.70
2010,11,23,01,34,4.90
2010,11,23,01,35,15.20
2010,11,23,01,36,12.90
2010,11,23,01,37,18.20
2010,11,23,01,38,18.40
2010,11,23,01,39,11.40
2010,11,23,01,40,12.60
2010,11,23,01,41,18.90
2010,11,23,01,42,18.20
2010,11,23,01,43,16.20
2010,11,23,01,44,9.70
2010,11,23,01,45,17.10
2010,11,23,01,46,12.60
2010,11,23,01,47,10.70
2010,11,23,01,48,8.00
2010,11,23,01,49,11.50
2010,11,23,01,50,10.70
2010,11,23,01,51,22.10
2010,11,23,01,52,11.20
2010,11,23,01,53,10.20
2010,11,23,01,54,13.80
2010,11,23,01,55,3.60
2010,11,23,01,56,13.50
2010,11,23,01,57,8.00
2010,11,23,01,58,10.70
2010,11,23,01,59,14.10
2010,11,23,02,00,15.00
2010,11,23,02,01,8.00
2010,11,23,02,02,8.80
2010,11,23,02,03,10.70
2010,11,23,02,04,11.90
2010,11,23,02,05,16.90
2010,11,23,02,06,12.20
2010,11,23,02,07,5.60
2010,11,23,02,08,4.70
2010,11,23,02,09,11.70
2010,11,23,02,10,8.30
2010,11,23,02,11,4.90
2010,11,23,02,12,7.50
2010,11,23,02,13,5.70
2010,11,23,02,14,12.00
2010,11,23,02,15,14.30
2010,11,23,02,16,7.20
2010,11,23,02,17,4.20
2010,11,23,02,18,5.80
2010,11,23,02,19,7.00
2010,11,23,02,20,7.30
2010,11,23,02,21,9.30
2010,11,23,02,22,10.40
2010,11,23,02,23,9.20
2010,11,23,02,24,11.40
2010,11,23,02,25,6.50
2010,11,23,02,26,13.40
2010,11,23,02,27,15.00
2010,11,23,02,28,23.30
2010,11,23,02,29,20.40
2010,11,23,02,30,10.10
2010,11,23,02,31,14.10
2010,11,23,02,32,7.10
2010,11,23,02,33,4.40
2010,11,23,02,34,6.40
2010,11,23,02,35,9.90
2010,11,23,02,36,9.00
2010,11,23,02,37,8.70
2010,11,23,02,38,3.70
2010,11,23,02,39,4.70
2010,11,23,02,40,3.90
2010,11,23,02,41,3.60
2010,11,23,02,42,4.10
2010,11,23,02,43,13.80
2010,11,23,02,44,17.20
2010,11,23,02,45,14.20
2010,11,23,02,46,10.10
2010,11,23,02,47,9.30
2010,11,23,02,48,11.10
2010,11,23,02,49,10.50
2010,11,23,02,50,12.30
2010,11,23,02,51,5.60
2010,11,23,02,52,6.50
2010,11,23,02,53,7.40
2010,11,23,02,54,7.20
2010,11,23,02,55,1.00
2010,11,23,02,56,4.50
2010,11,23,02,57,9.30
2010,11,23,02,58,9.60
2010,11,23,02,59,5.70
2010,11,23,03,00,0.00
2010,11,23,03,01,4.80
2010,11,23,03,02,7.10
2010,11,23,03,03,6.40
2010,11,23,03,04,0.50
2010,11,23,03,05,4.70
2010,11,23,03,06,13.90
2010,11,23,03,07,7.60
2010,11,23,03,08,4.70
2010,11,23,03,09,9.30
2010,11,23,03,10,13.00
2010,11,23,03,11,4.60
2010,11,23,03,12,1.70
2010,11,23,03,13,3.40
2010,11,23,03,14,7.90
2010,11,23,03,15,8.90
2010,11,23,03,16,6.60
2010,11,23,03,17,4.60
2010,11,23,03,18,4.10
2010,11,23,03,19,4.40
2010,11,23,03,20,6.20
2010,11,23,03,21,12.20
2010,11,23,03,22,13.60
2010,11,23,03,23,11.60
2010,11,23,03,24,12.20
2010,11,23,03,25,20.50
2010,11,23,03,26,23.80
2010,11,23,03,27,12.50
2010,11,23,03,28,7.00
2010,11,23,03,29,7.10
2010,11,23,03,30,17.60
2010,11,23,03,31,5.90
2010,11,23,03,32,7.90
2010,11,23,03,33,9.00
2010,11,23,03,34,2.20
2010,11,23,03,35,4.80
2010,11,23,03,36,3.50
2010,11,23,03,37,4.20
2010,11,23,03,38,11.40
2010,11,23,03,39,11.10
2010,11,23,03,40,6.00
2010,11,23,03,41,8.60
2010,11,23,03,42,9.30
2010,11,23,03,43,6.40
2010,11,23,03,44,1.80
2010,11,23,03,45,2.00
2010,11,23,03,46,4.20
2010,11,23,03,47,7.20
2010,11,23,03,48,6.30
2010,11,23,03,49,10.20
2010,11,23,03,50,1.80
2010,11,23,03,51,0.60
2010,11,23,03,52,0.50
2010,11,23,03,53,0.10
2010,11,23,03,54,1.80
2010,11,23,03,55,4.30
2010,11,23,03,56,5.80
2010,11,23,03,57,7.10
2010,11,23,03,58,4.80
2010,11,23,03,59,5.80
2010,11,23,04,00,2.60
2010,11,23,04,01,1.20
2010,11,23,04,02,2.50
2010,11,23,04,03,9.30
2010,11,23,04,04,14.70
2010,11,23,04,05,7.70
2010,11,23,04,06,9.40
2010,11,23,04,07,11.70
2010,11,23,04,08,9.90
2010,11,23,04,09,6.40
2010,11,23,04,10,9.70
2010,11,23,04,11,13.60
2010,11,23,04,12,23.20
2010,11,23,04,13,11.10
2010,11,23,04,14,10.90
2010,11,23,04,15,22.00
2010,11,23,04,16,15.30
2010,11,23,04,17,15.20
2010,11,23,04,18,16.60
2010,11,23,04,19,19.20
2010,11,23,04,20,11.40
2010,11,23,04,21,10.40
2010,11,23,04,22,7.90
2010,11,23,04,23,13.60
2010,11,23,04,24,12.90
2010,11,23,04,25,8.20
2010,11,23,04,26,5.80
2010,11,23,04,27,9.10
2010,11,23,04,28,11.80
2010,11,23,04,29,6.30
2010,11,23,04,30,4.00
2010,11,23,04,31,13.70
2010,11,23,04,32,9.70
2010,11,23,04,33,13.60
2010,11,23,04,34,10.60
2010,11,23,04,35,4.70
2010,11,23,04,36,0.20
2010,11,23,04,37,0.00
2010,11,23,04,38,1.40
2010,11,23,04,39,6.60
2010,11,23,04,40,0.60
2010,11,23,04,41,3.10
2010,11,23,04,42,20.30
2010,11,23,04,43,13.80
2010,11,23,04,44,11.50
2010,11,23,04,45,14.10
2010,11,23,04,46,4.80
2010,11,23,04,47,8.30
2010,11,23,04,48,10.30
2010,11,23,04,49,9.90
2010,11,23,04,50,7.20
2010,11,23,04,51,6.50
2010,11,23,04,52,7.60
2010,11,23,04,53,3.50
2010,11,23,04,54,10.20
2010,11,23,04,55,12.50
2010,11,23,04,56,7.80
2010,11,23,04,57,8.00
2010,11,23,04,58,14.60
2010,11,23,04,59,9.20
2010,11,23,05,00,10.90
2010,11,23,05,01,10.50
2010,11,23,05,02,6.60
2010,11,23,05,03,13.00
2010,11,23,05,04,2.70
2010,11,23,05,05,3.40
2010,11,23,05,06,14.70
2010,11,23,05,07,13.30
2010,11,23,05,08,7.40
2010,11,23,05,09,1.60
2010,11,23,05,10,2.80
2010,11,23,05,11,6.40
2010,11,23,05,12,10.30
2010,11,23,05,13,5.60
2010,11,23,05,14,2.00
2010,11,23,05,15,4.10
2010,11,23,05,16,1.00
2010,11,23,05,17,2.60
2010,11,23,05,18,0.40
2010,11,23,05,19,0.00
2010,11,23,05,20,4.60
2010,11,23,05,21,8.90
2010,11,23,05,22,12.30
2010,11,23,05,23,7.00
2010,11,23,05,24,19.70
2010,11,23,05,25,7.80
2010,11,23,05,26,9.60
2010,11,23,05,27,13.50
2010,11,23,05,28,14.30
2010,11,23,05,29,10.50
2010,11,23,05,30,13.10
2010,11,23,05,31,15.60
2010,11,23,05,32,8.40
2010,11,23,05,33,12.10
2010,11,23,05,34,7.00
2010,11,23,05,35,20.70
2010,11,23,05,36,11.70
2010,11,23,05,37,3.70
2010,11,23,05,38,1.00
2010,11,23,05,39,2.20
2010,11,23,05,40,9.90
2010,11,23,05,41,9.60
2010,11,23,05,42,13.20
2010,11,23,05,43,13.70
2010,11,23,05,44,10.10
2010,11,23,05,45,5.80
2010,11,23,05,46,3.60
2010,11,23,05,47,3.50
2010,11,23,05,48,1.30
2010,11,23,05,49,3.50
2010,11,23,05,50,4.60
2010,11,23,05,51,8.70
2010,11,23,05,52,13.80
2010,11,23,05,53,6.50
2010,11,23,05,54,4.80
2010,11,23,05,55,7.40
2010,11,23,05,56,3.90
2010,11,23,05,57,6.40
2010,11,23,05,58,9.30
2010,11,23,05,59,6.70
2010,11,23,06,00,10.30
2010,11,23,06,01,7.90
2010,11,23,06,02,4.80
2010,11,23,06,03,2.60
2010,11,23,06,04,7.30
2010,11,23,06,05,14.00
2010,11,23,06,06,27.40
2010,11,23,06,07,12.70
2010,11,23,06,08,16.60
2010,11,23,06,09,13.70
2010,11,23,06,10,10.30
2010,11,23,06,11,3.50
2010,11,23,06,12,0.90
2010,11,23,06,13,7.50
2010,11,23,06,14,4.70
2010,11,23,06,15,3.80
2010,11,23,06,16,5.10
2010,11,23,06,17,4.50
2010,11,23,06,18,4.90
2010,11,23,06,19,6.50
2010,11,23,06,20,7.70
2010,11,23,06,21,3.60
2010,11,23,06,22,2.50
2010,11,23,06,23,4.00
2010,11,23,06,24,2.50
2010,11,23,06,25,2.80
2010,11,23,06,26,6.00
2010,11,23,06,27,8.90
2010,11,23,06,28,9.40
2010,11,23,06,29,5.30
2010,11,23,06,30,6.30
2010,11,23,06,31,6.40
2010,11,23,06,32,7.10
2010,11,23,06,33,8.50
2010,11,23,06,34,3.80
2010,11,23,06,35,4.50
2010,11,23,06,36,4.10
2010,11,23,06,37,3.60
2010,11,23,06,38,7.40
2010,11,23,06,39,8.20
2010,11,23,06,40,12.80
2010,11,23,06,41,5.30
2010,11,23,06,42,2.90
2010,11,23,06,43,8.50
2010,11,23,06,44,5.90
2010,11,23,06,45,5.60
2010,11,23,06,46,5.30
2010,11,23,06,47,8.60
2010,11,23,06,48,6.60
2010,11,23,06,49,16.30
2010,11,23,06,50,14.60
2010,11,23,06,51,12.60
2010,11,23,06,52,10.10
2010,11,23,06,53,4.90
2010,11,23,06,54,5.40
2010,11,23,06,55,8.90
2010,11,23,06,56,2.00
2010,11,23,06,57,5.60
2010,11,23,06,58,9.20
2010,11,23,06,59,7.20
2010,11,23,07,00,9.90
2010,11,23,07,01,6.20
2010,11,23,07,02,7.50
2010,11,23,07,03,8.20
2010,11,23,07,04,8.30
2010,11,23,07,05,4.40
2010,11,23,07,06,5.10
2010,11,23,07,07,5.50
2010,11,23,07,08,3.60
2010,11,23,07,09,2.60
2010,11,23,07,10,1.20
2010,11,23,07,11,2.00
2010,11,23,07,12,3.50
2010,11,23,07,13,9.70
2010,11,23,07,14,3.30
2010,11,23,07,15,5.70
2010,11,23,07,16,12.00
2010,11,23,07,17,5.10
2010,11,23,07,18,4.20
2010,11,23,07,19,2.00
2010,11,23,07,20,2.10
2010,11,23,07,21,3.10
2010,11,23,07,22,1.30
2010,11,23,07,23,5.80
2010,11,23,07,24,2.90
2010,11,23,07,25,6.00
2010,11,23,07,26,7.80
2010,11,23,07,27,10.80
2010,11,23,07,28,8.00
2010,11,23,07,29,7.00
2010,11,23,07,30,3.30
2010,11,23,07,31,5.80
2010,11,23,07,32,5.60
2010,11,23,07,33,9.00
2010,11,23,07,34,7.20
2010,11,23,07,35,7.30
2010,11,23,07,36,10.10
2010,11,23,07,37,7.50
2010,11,23,07,38,6.30
2010,11,23,07,39,2.50
2010,11,23,07,40,4.20
2010,11,23,07,41,5.50
2010,11,23,07,42,3.60
2010,11,23,07,43,4.10
2010,11,23,07,44,4.20
2010,11,23,07,45,3.50
2010,11,23,07,46,5.90
2010,11,23,07,47,3.10
2010,11,23,07,48,4.10
2010,11,23,07,49,0.10
2010,11,23,07,50,2.40
2010,11,23,07,51,3.80
2010,11,23,07,52,4.10
2010,11,23,07,53,2.10
2010,11,23,07,54,1.30
2010,11,23,07,55,1.70
2010,11,23,07,56,3.30
2010,11,23,07,57,1.00
2010,11,23,07,58,0.20
2010,11,23,07,59,9.00
2010,11,23,08,00,2.50
2010,11,23,08,01,4.50
2010,11,23,08,02,3.70
2010,11,23,08,03,9.10
2010,11,23,08,04,9.10
2010,11,23,08,05,3.80
2010,11,23,08,06,3.10
2010,11,23,08,07,4.70
2010,11,23,08,08,6.70
2010,11,23,08,09,5.00
2010,11,23,08,10,0.50
2010,11,23,08,11,0.50
2010,11,23,08,12,0.00
2010,11,23,08,13,2.50
2010,11,23,08,14,3.10
2010,11,23,08,15,5.20
2010,11,23,08,16,4.80
2010,11,23,08,17,5.50
2010,11,23,08,18,4.10
2010,11,23,08,19,4.60
2010,11,23,08,20,3.80
2010,11,23,08,21,5.90
2010,11,23,08,22,4.00
2010,11,23,08,23,3.60
2010,11,23,08,24,7.90
2010,11,23,08,25,5.90
2010,11,23,08,26,5.20
2010,11,23,08,27,4.60
2010,11,23,08,28,2.50
2010,11,23,08,29,1.60
2010,11,23,08,30,4.10
2010,11,23,08,31,8.50
2010,11,23,08,32,4.70
2010,11,23,08,33,7.10
2010,11,23,08,34,5.20
2010,11,23,08,35,3.90
2010,11,23,08,36,1.30
2010,11,23,08,37,4.20
2010,11,23,08,38,7.80
2010,11,23,08,39,2.10
2010,11,23,08,40,9.70
2010,11,23,08,41,5.20
2010,11,23,08,42,8.60
2010,11,23,08,43,2.10
2010,11,23,08,44,3.50
2010,11,23,08,45,0.40
2010,11,23,08,46,0.00
2010,11,23,08,47,2.50
2010,11,23,08,48,0.30
2010,11,23,08,49,0.80
2010,11,23,08,50,2.20
2010,11,23,08,51,3.10
2010,11,23,08,52,4.00
2010,11,23,08,53,3.80
2010,11,23,08,54,2.60
2010,11,23,08,55,2.90
2010,11,23,08,56,3.20
2010,11,23,08,57,3.50
2010,11,23,08,58,3.50
2010,11,23,08,59,3.80
2010,11,23,09,00,2.30
2010,11,23,09,01,6.10
2010,11,23,09,02,3.80
2010,11,23,09,03,3.60
2010,11,23,09,04,2.40
2010,11,23,09,05,1.10
2010,11,23,09,06,2.50
2010,11,23,09,07,2.70
2010,11,23,09,08,0.80
2010,11,23,09,09,0.60
2010,11,23,09,10,3.20
2010,11,23,09,11,3.20
2010,11,23,09,12,3.20
2010,11,23,09,13,3.10
2010,11,23,09,14,0.90
2010,11,23,09,15,0.20
2010,11,23,09,16,1.50
2010,11,23,09,17,1.30
2010,11,23,09,18,1.30
2010,11,23,09,19,2.40
2010,11,23,09,20,0.30
2010,11,23,09,21,0.70
2010,11,23,09,22,0.20
2010,11,23,09,23,2.90
2010,11,23,09,24,1.20
2010,11,23,09,25,0.00
2010,11,23,09,26,0.60
2010,11,23,09,27,1.30
2010,11,23,09,28,3.80
2010,11,23,09,29,11.20
2010,11,23,09,30,5.30
2010,11,23,09,31,2.80
2010,11,23,09,32,5.10
2010,11,23,09,33,10.30
2010,11,23,09,34,11.00
2010,11,23,09,35,5.70
2010,11,23,09,36,5.30
2010,11,23,09,37,6.80
2010,11,23,09,38,2.20
2010,11,23,09,39,2.40
2010,11,23,09,40,2.70
2010,11,23,09,41,3.60
2010,11,23,09,42,5.00
2010,11,23,09,43,6.90
2010,11,23,09,44,6.90
2010,11,23,09,45,7.10
2010,11,23,09,46,15.60
2010,11,23,09,47,9.20
2010,11,23,09,48,9.00
2010,11,23,09,49,6.70
2010,11,23,09,50,0.90
2010,11,23,09,51,2.00
2010,11,23,09,52,10.60
2010,11,23,09,53,5.10
2010,11,23,09,54,7.90
2010,11,23,09,55,7.60
2010,11,23,09,56,4.20
2010,11,23,09,57,3.50
2010,11,23,09,58,10.80
2010,11,23,09,59,5.90
2010,11,23,10,00,0.80
2010,11,23,10,01,3.20
2010,11,23,10,02,3.00
2010,11,23,10,03,7.70
2010,11,23,10,04,12.20
2010,11,23,10,05,8.10
2010,11,23,10,06,3.90
2010,11,23,10,07,0.10
2010,11,23,10,08,2.60
2010,11,23,10,09,1.80
2010,11,23,10,10,10.60
2010,11,23,10,11,12.50
2010,11,23,10,12,5.20
2010,11,23,10,13,0.00
2010,11,23,10,14,2.00
2010,11,23,10,15,3.60
2010,11,23,10,16,2.40
2010,11,23,10,17,3.50
2010,11,23,10,18,8.70
2010,11,23,10,19,16.80
2010,11,23,10,20,14.60
2010,11,23,10,21,8.90
2010,11,23,10,22,5.80
2010,11,23,10,23,10.30
2010,11,23,10,24,12.40
2010,11,23,10,25,8.80
2010,11,23,10,26,5.20
2010,11,23,10,27,4.00
2010,11,23,10,28,0.10
2010,11,23,10,29,1.10
2010,11,23,10,30,0.20
2010,11,23,10,31,0.60
2010,11,23,10,32,2.40
2010,11,23,10,33,3.10
2010,11,23,10,34,4.20
2010,11,23,10,35,5.40
2010,11,23,10,36,2.20
2010,11,23,10,37,3.30
2010,11,23,10,38,6.20
2010,11,23,10,39,12.30
2010,11,23,10,40,5.50
2010,11,23,10,41,0.60
2010,11,23,10,42,3.60
2010,11,23,10,43,2.00
2010,11,23,10,44,4.60
2010,11,23,10,45,2.30
2010,11,23,10,46,2.50
2010,11,23,10,47,3.70
2010,11,23,10,48,5.90
2010,11,23,10,49,8.00
2010,11,23,10,50,3.70
2010,11,23,10,51,2.10
2010,11,23,10,52,5.50
2010,11,23,10,53,1.90
2010,11,23,10,54,1.50
2010,11,23,10,55,3.60
2010,11,23,10,56,4.00
2010,11,23,10,57,1.40
2010,11,23,10,58,1.10
2010,11,23,10,59,4.00
2010,11,23,11,00,5.90
2010,11,23,11,01,5.80
2010,11,23,11,02,5.40
2010,11,23,11,03,8.30
2010,11,23,11,04,8.90
2010,11,23,11,05,5.90
2010,11,23,11,06,3.90
2010,11,23,11,07,2.20
2010,11,23,11,08,2.50
2010,11,23,11,09,1.30
2010,11,23,11,10,1.30
2010,11,23,11,11,2.60
2010,11,23,11,12,1.80
2010,11,23,11,13,0.20
2010,11,23,11,14,3.80
2010,11,23,11,15,3.60
2010,11,23,11,16,2.10
2010,11,23,11,17,3.30
2010,11,23,11,18,4.10
2010,11,23,11,19,3.20
2010,11,23,11,20,0.80
2010,11,23,11,21,4.30
2010,11,23,11,22,3.50
2010,11,23,11,23,2.40
2010,11,23,11,24,5.20
2010,11,23,11,25,5.80
2010,11,23,11,26,4.20
2010,11,23,11,27,3.90
2010,11,23,11,28,4.60
2010,11,23,11,29,4.70
2010,11,23,11,30,7.50
2010,11,23,11,31,8.20
2010,11,23,11,32,4.50
2010,11,23,11,33,2.10
2010,11,23,11,34,2.50
2010,11,23,11,35,0.30
2010,11,23,11,36,1.10
2010,11,23,11,37,4.30
2010,11,23,11,38,3.60
2010,11,23,11,39,2.40
2010,11,23,11,40,3.50
2010,11,23,11,41,0.40
2010,11,23,11,42,2.00
2010,11,23,11,43,3.10
2010,11,23,11,44,3.30
2010,11,23,11,45,4.50
2010,11,23,11,46,1.90
2010,11,23,11,47,4.70
2010,11,23,11,48,4.90
2010,11,23,11,49,2.30
2010,11,23,11,50,3.90
2010,11,23,11,51,6.80
2010,11,23,11,52,3.10
2010,11,23,11,53,2.90
2010,11,23,11,54,5.70
2010,11,23,11,55,3.20
2010,11,23,11,56,1.80
2010,11,23,11,57,3.00
2010,11,23,11,58,3.50
2010,11,23,11,59,2.70
2010,11,23,12,00,3.10
2010,11,23,12,01,4.10
2010,11,23,12,02,2.40
2010,11,23,12,03,6.20
2010,11,23,12,04,4.50
2010,11,23,12,05,7.80
2010,11,23,12,06,8.80
2010,11,23,12,07,3.80
2010,11,23,12,08,4.80
2010,11,23,12,09,1.30
2010,11,23,12,10,0.60
2010,11,23,12,11,0.00
2010,11,23,12,12,4.20
2010,11,23,12,13,2.80
2010,11,23,12,14,1.90
2010,11,23,12,15,6.50
2010,11,23,12,16,7.40
2010,11,23,12,17,5.60
2010,11,23,12,18,4.90
2010,11,23,12,19,4.60
2010,11,23,12,20,8.10
2010,11,23,12,21,4.50
2010,11,23,12,22,1.40
2010,11,23,12,23,3.00
2010,11,23,12,24,4.90
2010,11,23,12,25,4.30
2010,11,23,12,26,5.30
2010,11,23,12,27,5.30
2010,11,23,12,28,3.70
2010,11,23,12,29,2.90
2010,11,23,12,30,4.40
2010,11,23,12,31,2.30
2010,11,23,12,32,0.20
2010,11,23,12,33,2.60
2010,11,23,12,34,4.10
2010,11,23,12,35,3.30
2010,11,23,12,36,2.40
2010,11,23,12,37,2.10
2010,11,23,12,38,0.60
2010,11,23,12,39,0.00
2010,11,23,12,40,0.10
2010,11,23,12,41,0.00
2010,11,23,12,42,1.10
2010,11,23,12,43,2.50
2010,11,23,12,44,5.80
2010,11,23,12,45,3.10
2010,11,23,12,46,3.10
2010,11,23,12,47,3.50
2010,11,23,12,48,2.50
2010,11,23,12,49,2.40
2010,11,23,12,50,1.80
2010,11,23,12,51,1.90
2010,11,23,12,52,8.10
2010,11,23,12,53,6.70
2010,11,23,12,54,2.30
2010,11,23,12,55,0.70
2010,11,23,12,56,3.90
2010,11,23,12,57,4.30
2010,11,23,12,58,6.20
2010,11,23,12,59,4.10
2010,11,23,13,00,4.90
2010,11,23,13,01,3.80
2010,11,23,13,02,2.10
2010,11,23,13,03,2.30
2010,11,23,13,04,2.80
2010,11,23,13,05,3.80
2010,11,23,13,06,4.70
2010,11,23,13,07,1.50
2010,11,23,13,08,3.90
2010,11,23,13,09,6.80
2010,11,23,13,10,6.10
2010,11,23,13,11,6.80
2010,11,23,13,12,5.30
2010,11,23,13,13,1.80
2010,11,23,13,14,0.00
2010,11,23,13,15,0.00
2010,11,23,13,16,0.00
2010,11,23,13,17,1.60
2010,11,23,13,18,4.50
2010,11,23,13,19,1.20
2010,11,23,13,20,0.10
2010,11,23,13,21,0.20
2010,11,23,13,22,0.40
2010,11,23,13,23,1.90
2010,11,23,13,24,0.00
2010,11,23,13,25,0.00
2010,11,23,13,26,0.60
2010,11,23,13,27,0.90
2010,11,23,13,28,1.20
2010,11,23,13,29,1.50
2010,11,23,13,30,5.30
2010,11,23,13,31,4.70
2010,11,23,13,32,3.20
2010,11,23,13,33,5.60
2010,11,23,13,34,4.50
2010,11,23,13,35,3.50
2010,11,23,13,36,2.10
2010,11,23,13,37,5.10
2010,11,23,13,38,5.50
2010,11,23,13,39,2.60
2010,11,23,13,40,5.80
2010,11,23,13,41,6.80
2010,11,23,13,42,7.90
2010,11,23,13,43,8.00
2010,11,23,13,44,3.40
2010,11,23,13,45,0.90
2010,11,23,13,46,0.40
2010,11,23,13,47,0.10
2010,11,23,13,48,0.60
2010,11,23,13,49,2.00
2010,11,23,13,50,1.30
2010,11,23,13,51,1.40
2010,11,23,13,52,0.60
2010,11,23,13,53,2.00
2010,11,23,13,54,1.00
2010,11,23,13,55,0.10
2010,11,23,13,56,0.00
2010,11,23,13,57,1.00
2010,11,23,13,58,3.80
2010,11,23,13,59,0.50
2010,11,23,14,00,2.30
2010,11,23,14,01,3.10
2010,11,23,14,02,2.70
2010,11,23,14,03,5.10
2010,11,23,14,04,4.70
2010,11,23,14,05,2.10
2010,11,23,14,06,5.50
2010,11,23,14,07,5.40
2010,11,23,14,08,6.70
2010,11,23,14,09,2.40
2010,11,23,14,10,0.50
2010,11,23,14,11,2.00
2010,11,23,14,12,2.90
2010,11,23,14,13,4.00
2010,11,23,14,14,5.30
2010,11,23,14,15,3.00
2010,11,23,14,16,5.10
2010,11,23,14,17,3.10
2010,11,23,14,18,2.30
2010,11,23,14,19,1.90
2010,11,23,14,20,3.70
2010,11,23,14,21,2.80
2010,11,23,14,22,2.20
2010,11,23,14,23,2.90
2010,11,23,14,24,2.80
2010,11,23,14,25,2.00
2010,11,23,14,26,2.40
2010,11,23,14,27,0.30
2010,11,23,14,28,0.80
2010,11,23,14,29,0.00
2010,11,23,14,30,0.10
2010,11,23,14,31,0.00
2010,11,23,14,32,0.20
2010,11,23,14,33,0.40
2010,11,23,14,34,0.00
2010,11,23,14,35,0.00
2010,11,23,14,36,0.00
2010,11,23,14,37,0.00
2010,11,23,14,38,1.20
2010,11,23,14,39,0.00
2010,11,23,14,40,1.40
2010,11,23,14,41,0.90
2010,11,23,14,42,0.00
2010,11,23,14,43,0.10
2010,11,23,14,44,0.30
2010,11,23,14,45,0.10
2010,11,23,14,46,0.00
2010,11,23,14,47,2.10
2010,11,23,14,48,1.80
2010,11,23,14,49,2.40
2010,11,23,14,50,4.20
2010,11,23,14,51,3.50
2010,11,23,14,52,0.70
2010,11,23,14,53,0.10
2010,11,23,14,54,1.50
2010,11,23,14,55,1.90
2010,11,23,14,56,1.50
2010,11,23,14,57,0.10
2010,11,23,14,58,0.10
2010,11,23,14,59,0.00
2010,11,23,15,00,0.00
2010,11,23,15,01,0.00
2010,11,23,15,02,0.00
2010,11,23,15,03,0.00
2010,11,23,15,04,0.00
2010,11,23,15,05,0.00
2010,11,23,15,06,0.00
2010,11,23,15,07,0.00
2010,11,23,15,08,0.10
2010,11,23,15,09,0.80
2010,11,23,15,10,2.30
2010,11,23,15,11,0.00
2010,11,23,15,12,0.50
2010,11,23,15,13,0.00
2010,11,23,15,14,0.00
2010,11,23,15,15,0.00
2010,11,23,15,16,0.00
2010,11,23,15,17,0.00
2010,11,23,15,18,0.10
2010,11,23,15,19,0.00
2010,11,23,15,20,0.00
2010,11,23,15,21,0.00
2010,11,23,15,22,0.00
2010,11,23,15,23,0.00
2010,11,23,15,24,0.00
2010,11,23,15,25,0.00
2010,11,23,15,26,0.00
2010,11,23,15,27,0.10
2010,11,23,15,28,0.90
2010,11,23,15,29,0.10
2010,11,23,15,30,0.00
2010,11,23,15,31,0.00
2010,11,23,15,32,0.30
2010,11,23,15,33,0.60
2010,11,23,15,34,0.00
2010,11,23,15,35,0.00
2010,11,23,15,36,0.00
2010,11,23,15,37,0.00
2010,11,23,15,38,0.90
2010,11,23,15,39,0.10
2010,11,23,15,40,0.00
2010,11,23,15,41,0.00
2010,11,23,15,42,0.00
2010,11,23,15,43,0.00
2010,11,23,15,44,0.00
2010,11,23,15,45,0.00
2010,11,23,15,46,0.00
2010,11,23,15,47,0.00
2010,11,23,15,48,0.00
2010,11,23,15,49,0.00
2010,11,23,15,50,0.00
2010,11,23,15,51,0.00
2010,11,23,15,52,0.00
2010,11,23,15,53,0.00
2010,11,23,15,54,0.00
2010,11,23,15,55,0.00
2010,11,23,15,56,1.70
2010,11,23,15,57,0.70
2010,11,23,15,58,1.20
2010,11,23,15,59,1.20
2010,11,23,16,00,0.30
2010,11,23,16,01,0.70
2010,11,23,16,02,1.60
2010,11,23,16,03,0.80
2010,11,23,16,04,0.20
2010,11,23,16,05,0.70
2010,11,23,16,06,0.90
2010,11,23,16,07,1.10
2010,11,23,16,08,0.10
2010,11,23,16,09,0.00
2010,11,23,16,10,0.10
2010,11,23,16,11,0.60
2010,11,23,16,12,0.40
2010,11,23,16,13,0.00
2010,11,23,16,14,0.00
2010,11,23,16,15,0.00
2010,11,23,16,16,0.50
2010,11,23,16,17,0.70
2010,11,23,16,18,0.80
2010,11,23,16,19,0.60
2010,11,23,16,20,0.60
2010,11,23,16,21,0.90
2010,11,23,16,22,0.20
2010,11,23,16,23,0.70
2010,11,23,16,24,1.10
2010,11,23,16,25,1.30
2010,11,23,16,26,0.90
2010,11,23,16,27,0.70
2010,11,23,16,28,1.00
2010,11,23,16,29,0.30
2010,11,23,16,30,0.70
2010,11,23,16,31,0.50
2010,11,23,16,32,1.20
2010,11,23,16,33,0.70
2010,11,23,16,34,0.40
2010,11,23,16,35,0.50
2010,11,23,16,36,0.90
2010,11,23,16,37,0.40
2010,11,23,16,38,0.70
2010,11,23,16,39,0.20
2010,11,23,16,40,0.50
2010,11,23,16,41,1.90
2010,11,23,16,42,1.60
2010,11,23,16,43,1.00
2010,11,23,16,44,0.40
2010,11,23,16,45,1.20
2010,11,23,16,46,1.70
2010,11,23,16,47,0.80
2010,11,23,16,48,1.20
2010,11,23,16,49,0.30
2010,11,23,16,50,0.30
2010,11,23,16,51,1.10
2010,11,23,16,52,2.20
2010,11,23,16,53,2.10
2010,11,23,16,54,1.40
2010,11,23,16,55,0.50
2010,11,23,16,56,1.10
2010,11,23,16,57,1.40
2010,11,23,16,58,0.70
2010,11,23,16,59,1.90
2010,11,23,17,00,2.00
2010,11,23,17,01,1.40
2010,11,23,17,02,1.30
2010,11,23,17,03,0.70
2010,11,23,17,04,0.30
2010,11,23,17,05,0.70
2010,11,23,17,06,0.90
2010,11,23,17,07,1.40
2010,11,23,17,08,1.80
2010,11,23,17,09,2.00
2010,11,23,17,10,1.80
2010,11,23,17,11,1.20
2010,11,23,17,12,1.50
2010,11,23,17,13,1.20
2010,11,23,17,14,0.80
2010,11,23,17,15,2.00
2010,11,23,17,16,0.90
2010,11,23,17,17,2.00
2010,11,23,17,18,1.50
2010,11,23,17,19,2.10
2010,11,23,17,20,1.50
2010,11,23,17,21,1.10
2010,11,23,17,22,1.10
2010,11,23,17,23,1.60
2010,11,23,17,24,0.50
2010,11,23,17,25,0.80
2010,11,23,17,26,1.00
2010,11,23,17,27,1.10
2010,11,23,17,28,1.90
2010,11,23,17,29,1.50
2010,11,23,17,30,0.80
2010,11,23,17,31,1.20
2010,11,23,17,32,1.40
2010,11,23,17,33,1.50
2010,11,23,17,34,1.10
2010,11,23,17,35,1.10
2010,11,23,17,36,1.10
2010,11,23,17,37,0.80
2010,11,23,17,38,1.50
2010,11,23,17,39,1.30
2010,11,23,17,40,1.80
2010,11,23,17,41,1.50
2010,11,23,17,42,1.50
2010,11,23,17,43,1.20
2010,11,23,17,44,0.90
2010,11,23,17,45,1.30
2010,11,23,17,46,1.80
2010,11,23,17,47,1.60
2010,11,23,17,48,2.00
2010,11,23,17,49,2.10
2010,11,23,17,50,2.60
2010,11,23,17,51,1.20
2010,11,23,17,52,1.70
2010,11,23,17,53,0.70
2010,11,23,17,54,2.20
2010,11,23,17,55,1.80
2010,11,23,17,56,2.40
2010,11,23,17,57,2.30